Tracking 28920 objects as of 26-May-2024
HD Live streaming from Space Station
objects crossing your sky now

STARLINK-1585

Track STARLINK-1585 now!
10-day predictions
STARLINK-1585 is classified as:


NORAD ID: 46117
Int'l Code: 2020-057A
Perigee: 553.5 km
Apogee: 555.1 km
Inclination: 53.1 °
Period: 95.6 minutes
Semi major axis: 6925 km
RCS: Unknown
Launch date: August 18, 2020
Source: United States (US)
Launch site: AIR FORCE EASTERN TEST RANGE (AFETR)
Your satellite tracking list
Your tracking list is empty




NASA's NSSDC Master Catalog

Two Line Element Set (TLE):
1 46117U 20057A   24147.75906171  .00002818  00000-0  20794-3 0  9991
2 46117  53.0542 343.2482 0001175  80.9851 279.1271 15.06407056208756
Source of the keplerian elements: AFSPC